Torna al catalogo

STARLINK-34056

AttivoComunicazioniVLEO
NORAD 63841·PAYLOAD·🇺🇸 United States

Lanciato May 7, 2025 da Cape Canaveral Space Force Station

Loading…

Prossimi Passaggi (prossime 24 ore)

TLE

AggiornatoSource: CelesTrak SupGP

Epoca: Sep 14, 2026, 22:21 UTC

1 63841C 25093F   26257.93173611 -.00091572  00000+0 -33221-2 0  2579
2 63841  43.0010  89.3774 0001522 265.2079  29.3209 15.27570455    18

Traccia STARLINK-34056 in tempo reale con AllMySat

Download on the App Store